Year,Month,Day,Hour,Minute,Value (Times are PST for temperature in C)
2017,09,01,00,00,13.30
2017,09,01,00,01,13.30
2017,09,01,00,02,13.30
2017,09,01,00,03,13.30
2017,09,01,00,04,13.30
2017,09,01,00,05,13.30
2017,09,01,00,06,13.30
2017,09,01,00,07,13.20
2017,09,01,00,08,13.20
2017,09,01,00,09,13.20
2017,09,01,00,10,13.20
2017,09,01,00,11,13.20
2017,09,01,00,12,13.20
2017,09,01,00,13,13.20
2017,09,01,00,14,13.10
2017,09,01,00,15,13.10
2017,09,01,00,16,13.10
2017,09,01,00,17,13.10
2017,09,01,00,18,13.10
2017,09,01,00,19,13.10
2017,09,01,00,20,13.00
2017,09,01,00,21,13.00
2017,09,01,00,22,13.00
2017,09,01,00,23,12.90
2017,09,01,00,24,12.90
2017,09,01,00,25,12.90
2017,09,01,00,26,12.90
2017,09,01,00,27,12.90
2017,09,01,00,28,12.90
2017,09,01,00,29,12.80
2017,09,01,00,30,12.80
2017,09,01,00,31,12.80
2017,09,01,00,32,12.80
2017,09,01,00,33,12.80
2017,09,01,00,34,12.70
2017,09,01,00,35,12.70
2017,09,01,00,36,12.70
2017,09,01,00,37,12.70
2017,09,01,00,38,12.60
2017,09,01,00,39,12.60
2017,09,01,00,40,12.60
2017,09,01,00,41,12.60
2017,09,01,00,42,12.60
2017,09,01,00,43,12.50
2017,09,01,00,44,12.50
2017,09,01,00,45,12.50
2017,09,01,00,46,12.60
2017,09,01,00,47,12.50
2017,09,01,00,48,12.50
2017,09,01,00,49,12.50
2017,09,01,00,50,12.50
2017,09,01,00,51,12.50
2017,09,01,00,52,12.40
2017,09,01,00,53,12.40
2017,09,01,00,54,12.40
2017,09,01,00,55,12.40
2017,09,01,00,56,12.40
2017,09,01,00,57,12.30
2017,09,01,00,58,12.30
2017,09,01,00,59,12.30
2017,09,01,01,00,12.30
2017,09,01,01,01,12.30
2017,09,01,01,02,12.30
2017,09,01,01,03,12.30
2017,09,01,01,04,12.20
2017,09,01,01,05,12.20
2017,09,01,01,06,12.20
2017,09,01,01,07,12.20
2017,09,01,01,08,12.20
2017,09,01,01,09,12.20
2017,09,01,01,10,12.10
2017,09,01,01,11,12.10
2017,09,01,01,12,12.10
2017,09,01,01,13,12.10
2017,09,01,01,14,12.10
2017,09,01,01,15,12.10
2017,09,01,01,16,12.10
2017,09,01,01,17,12.10
2017,09,01,01,18,12.10
2017,09,01,01,19,12.10
2017,09,01,01,20,12.10
2017,09,01,01,21,12.10
2017,09,01,01,22,12.10
2017,09,01,01,23,12.10
2017,09,01,01,24,12.00
2017,09,01,01,25,12.00
2017,09,01,01,26,12.00
2017,09,01,01,27,11.90
2017,09,01,01,28,11.90
2017,09,01,01,29,11.90
2017,09,01,01,30,11.90
2017,09,01,01,31,11.90
2017,09,01,01,32,11.90
2017,09,01,01,33,11.90
2017,09,01,01,34,11.90
2017,09,01,01,35,11.90
2017,09,01,01,36,11.90
2017,09,01,01,37,12.00
2017,09,01,01,38,12.00
2017,09,01,01,39,12.10
2017,09,01,01,40,12.10
2017,09,01,01,41,12.10
2017,09,01,01,42,12.10
2017,09,01,01,43,12.10
2017,09,01,01,44,12.10
2017,09,01,01,45,12.10
2017,09,01,01,46,12.10
2017,09,01,01,47,12.10
2017,09,01,01,48,12.10
2017,09,01,01,49,12.10
2017,09,01,01,50,12.10
2017,09,01,01,51,12.00
2017,09,01,01,52,12.00
2017,09,01,01,53,12.00
2017,09,01,01,54,11.90
2017,09,01,01,55,11.90
2017,09,01,01,56,11.90
2017,09,01,01,57,11.90
2017,09,01,01,58,11.90
2017,09,01,01,59,11.90
2017,09,01,02,00,11.90
2017,09,01,02,01,11.80
2017,09,01,02,02,11.80
2017,09,01,02,03,11.80
2017,09,01,02,04,11.80
2017,09,01,02,05,11.80
2017,09,01,02,06,11.80
2017,09,01,02,07,11.80
2017,09,01,02,08,11.80
2017,09,01,02,09,11.80
2017,09,01,02,10,11.80
2017,09,01,02,11,11.80
2017,09,01,02,12,11.70
2017,09,01,02,13,11.70
2017,09,01,02,14,11.70
2017,09,01,02,15,11.70
2017,09,01,02,16,11.70
2017,09,01,02,17,11.60
2017,09,01,02,18,11.60
2017,09,01,02,19,11.60
2017,09,01,02,20,11.60
2017,09,01,02,21,11.60
2017,09,01,02,22,11.70
2017,09,01,02,23,11.70
2017,09,01,02,24,11.70
2017,09,01,02,25,11.70
2017,09,01,02,26,11.70
2017,09,01,02,27,11.70
2017,09,01,02,28,11.70
2017,09,01,02,29,11.70
2017,09,01,02,30,11.70
2017,09,01,02,31,11.70
2017,09,01,02,32,11.70
2017,09,01,02,33,11.60
2017,09,01,02,34,11.60
2017,09,01,02,35,11.60
2017,09,01,02,36,11.60
2017,09,01,02,37,11.60
2017,09,01,02,38,11.60
2017,09,01,02,39,11.60
2017,09,01,02,40,11.60
2017,09,01,02,41,11.60
2017,09,01,02,42,11.60
2017,09,01,02,43,11.60
2017,09,01,02,44,11.60
2017,09,01,02,45,11.60
2017,09,01,02,46,11.60
2017,09,01,02,47,11.60
2017,09,01,02,48,11.60
2017,09,01,02,49,11.60
2017,09,01,02,50,11.60
2017,09,01,02,51,11.50
2017,09,01,02,52,11.50
2017,09,01,02,53,11.50
2017,09,01,02,54,11.40
2017,09,01,02,55,11.40
2017,09,01,02,56,11.40
2017,09,01,02,57,11.40
2017,09,01,02,58,11.30
2017,09,01,02,59,11.30
2017,09,01,03,00,11.30
2017,09,01,03,01,11.30
2017,09,01,03,02,11.30
2017,09,01,03,03,11.30
2017,09,01,03,04,11.30
2017,09,01,03,05,11.30
2017,09,01,03,06,11.30
2017,09,01,03,07,11.30
2017,09,01,03,08,11.30
2017,09,01,03,09,11.30
2017,09,01,03,10,11.30
2017,09,01,03,11,11.30
2017,09,01,03,12,11.30
2017,09,01,03,13,11.30
2017,09,01,03,14,11.30
2017,09,01,03,15,11.30
2017,09,01,03,16,11.20
2017,09,01,03,17,11.20
2017,09,01,03,18,11.20
2017,09,01,03,19,11.20
2017,09,01,03,20,11.20
2017,09,01,03,21,11.20
2017,09,01,03,22,11.20
2017,09,01,03,23,11.20
2017,09,01,03,24,11.20
2017,09,01,03,25,11.20
2017,09,01,03,26,11.20
2017,09,01,03,27,11.20
2017,09,01,03,28,11.20
2017,09,01,03,29,11.20
2017,09,01,03,30,11.20
2017,09,01,03,31,11.20
2017,09,01,03,32,11.20
2017,09,01,03,33,11.20
2017,09,01,03,34,11.20
2017,09,01,03,35,11.20
2017,09,01,03,36,11.20
2017,09,01,03,37,11.20
2017,09,01,03,38,11.20
2017,09,01,03,39,11.10
2017,09,01,03,40,11.10
2017,09,01,03,41,11.10
2017,09,01,03,42,11.10
2017,09,01,03,43,11.10
2017,09,01,03,44,11.10
2017,09,01,03,45,11.10
2017,09,01,03,46,11.10
2017,09,01,03,47,11.10
2017,09,01,03,48,11.00
2017,09,01,03,49,11.00
2017,09,01,03,50,11.00
2017,09,01,03,51,11.00
2017,09,01,03,52,11.00
2017,09,01,03,53,11.00
2017,09,01,03,54,10.90
2017,09,01,03,55,10.90
2017,09,01,03,56,10.90
2017,09,01,03,57,10.90
2017,09,01,03,58,10.90
2017,09,01,03,59,10.90
2017,09,01,04,00,10.90
2017,09,01,04,01,10.90
2017,09,01,04,02,10.90
2017,09,01,04,03,10.90
2017,09,01,04,04,10.90
2017,09,01,04,05,10.90
2017,09,01,04,06,11.00
2017,09,01,04,07,11.00
2017,09,01,04,08,11.00
2017,09,01,04,09,11.00
2017,09,01,04,10,11.00
2017,09,01,04,11,11.00
2017,09,01,04,12,11.00
2017,09,01,04,13,10.90
2017,09,01,04,14,10.90
2017,09,01,04,15,11.00
2017,09,01,04,16,11.00
2017,09,01,04,17,11.00
2017,09,01,04,18,11.00
2017,09,01,04,19,11.00
2017,09,01,04,20,11.00
2017,09,01,04,21,11.00
2017,09,01,04,22,11.10
2017,09,01,04,23,11.10
2017,09,01,04,24,11.10
2017,09,01,04,25,11.10
2017,09,01,04,26,11.00
2017,09,01,04,27,11.00
2017,09,01,04,28,11.00
2017,09,01,04,29,11.00
2017,09,01,04,30,11.00
2017,09,01,04,31,11.00
2017,09,01,04,32,11.00
2017,09,01,04,33,11.00
2017,09,01,04,34,11.00
2017,09,01,04,35,10.90
2017,09,01,04,36,10.90
2017,09,01,04,37,10.90
2017,09,01,04,38,10.90
2017,09,01,04,39,10.90
2017,09,01,04,40,10.90
2017,09,01,04,41,10.90
2017,09,01,04,42,10.90
2017,09,01,04,43,10.90
2017,09,01,04,44,10.90
2017,09,01,04,45,10.90
2017,09,01,04,46,10.90
2017,09,01,04,47,10.80
2017,09,01,04,48,10.80
2017,09,01,04,49,10.80
2017,09,01,04,50,10.80
2017,09,01,04,51,10.80
2017,09,01,04,52,10.80
2017,09,01,04,53,10.90
2017,09,01,04,54,10.90
2017,09,01,04,55,10.90
2017,09,01,04,56,10.90
2017,09,01,04,57,10.90
2017,09,01,04,58,10.90
2017,09,01,04,59,10.90
2017,09,01,05,00,10.90
2017,09,01,05,01,10.90
2017,09,01,05,02,10.80
2017,09,01,05,03,10.80
2017,09,01,05,04,10.80
2017,09,01,05,05,10.80
2017,09,01,05,06,10.80
2017,09,01,05,07,10.80
2017,09,01,05,08,10.80
2017,09,01,05,09,10.80
2017,09,01,05,10,10.80
2017,09,01,05,11,10.80
2017,09,01,05,12,10.80
2017,09,01,05,13,10.80
2017,09,01,05,14,10.80
2017,09,01,05,15,10.80
2017,09,01,05,16,10.80
2017,09,01,05,17,10.80
2017,09,01,05,18,10.80
2017,09,01,05,19,10.80
2017,09,01,05,20,10.80
2017,09,01,05,21,10.80
2017,09,01,05,22,10.80
2017,09,01,05,23,10.80
2017,09,01,05,24,10.80
2017,09,01,05,25,10.80
2017,09,01,05,26,10.80
2017,09,01,05,27,10.70
2017,09,01,05,28,10.70
2017,09,01,05,29,10.70
2017,09,01,05,30,10.70
2017,09,01,05,31,10.70
2017,09,01,05,32,10.70
2017,09,01,05,33,10.70
2017,09,01,05,34,10.70
2017,09,01,05,35,10.70
2017,09,01,05,36,10.70
2017,09,01,05,37,10.70
2017,09,01,05,38,10.70
2017,09,01,05,39,10.70
2017,09,01,05,40,10.70
2017,09,01,05,41,10.70
2017,09,01,05,42,10.70
2017,09,01,05,43,10.70
2017,09,01,05,44,10.60
2017,09,01,05,45,10.60
2017,09,01,05,46,10.60
2017,09,01,05,47,10.60
2017,09,01,05,48,10.60
2017,09,01,05,49,10.50
2017,09,01,05,50,10.50
2017,09,01,05,51,10.50
2017,09,01,05,52,10.50
2017,09,01,05,53,10.50
2017,09,01,05,54,10.50
2017,09,01,05,55,10.50
2017,09,01,05,56,10.50
2017,09,01,05,57,10.40
2017,09,01,05,58,10.50
2017,09,01,05,59,10.40
2017,09,01,06,00,10.40
2017,09,01,06,01,10.40
2017,09,01,06,02,10.40
2017,09,01,06,03,10.40
2017,09,01,06,04,10.40
2017,09,01,06,05,10.40
2017,09,01,06,06,10.40
2017,09,01,06,07,10.40
2017,09,01,06,08,10.40
2017,09,01,06,09,10.40
2017,09,01,06,10,10.40
2017,09,01,06,11,10.40
2017,09,01,06,12,10.40
2017,09,01,06,13,10.40
2017,09,01,06,14,10.40
2017,09,01,06,15,10.40
2017,09,01,06,16,10.40
2017,09,01,06,17,10.40
2017,09,01,06,18,10.40
2017,09,01,06,19,10.40
2017,09,01,06,20,10.40
2017,09,01,06,21,10.30
2017,09,01,06,22,10.30
2017,09,01,06,23,10.30
2017,09,01,06,24,10.30
2017,09,01,06,25,10.30
2017,09,01,06,26,10.30
2017,09,01,06,27,10.30
2017,09,01,06,28,10.30
2017,09,01,06,29,10.30
2017,09,01,06,30,10.30
2017,09,01,06,31,10.30
2017,09,01,06,32,10.30
2017,09,01,06,33,10.30
2017,09,01,06,34,10.30
2017,09,01,06,35,10.30
2017,09,01,06,36,10.30
2017,09,01,06,37,10.30
2017,09,01,06,38,10.30
2017,09,01,06,39,10.30
2017,09,01,06,40,10.30
2017,09,01,06,41,10.30
2017,09,01,06,42,10.30
2017,09,01,06,43,10.30
2017,09,01,06,44,10.30
2017,09,01,06,45,10.30
2017,09,01,06,46,10.30
2017,09,01,06,47,10.30
2017,09,01,06,48,10.30
2017,09,01,06,49,10.30
2017,09,01,06,50,10.30
2017,09,01,06,51,10.30
2017,09,01,06,52,10.30
2017,09,01,06,53,10.30
2017,09,01,06,54,10.30
2017,09,01,06,55,10.30
2017,09,01,06,56,10.30
2017,09,01,06,57,10.30
2017,09,01,06,58,10.30
2017,09,01,06,59,10.40
2017,09,01,07,00,10.40
2017,09,01,07,01,10.40
2017,09,01,07,02,10.50
2017,09,01,07,03,10.50
2017,09,01,07,04,10.50
2017,09,01,07,05,10.50
2017,09,01,07,06,10.50
2017,09,01,07,07,10.60
2017,09,01,07,08,10.60
2017,09,01,07,09,10.60
2017,09,01,07,10,10.60
2017,09,01,07,11,10.60
2017,09,01,07,12,10.60
2017,09,01,07,13,10.60
2017,09,01,07,14,10.60
2017,09,01,07,15,10.60
2017,09,01,07,16,10.70
2017,09,01,07,17,10.70
2017,09,01,07,18,10.70
2017,09,01,07,19,10.70
2017,09,01,07,20,10.70
2017,09,01,07,21,10.70
2017,09,01,07,22,10.70
2017,09,01,07,23,10.70
2017,09,01,07,24,10.70
2017,09,01,07,25,10.70
2017,09,01,07,26,10.70
2017,09,01,07,27,10.70
2017,09,01,07,28,10.70
2017,09,01,07,29,10.70
2017,09,01,07,30,10.70
2017,09,01,07,31,10.70
2017,09,01,07,32,10.70
2017,09,01,07,33,10.70
2017,09,01,07,34,10.60
2017,09,01,07,35,10.60
2017,09,01,07,36,10.70
2017,09,01,07,37,10.70
2017,09,01,07,38,10.70
2017,09,01,07,39,10.70
2017,09,01,07,40,10.70
2017,09,01,07,41,10.80
2017,09,01,07,42,10.80
2017,09,01,07,43,10.80
2017,09,01,07,44,10.90
2017,09,01,07,45,10.90
2017,09,01,07,46,10.90
2017,09,01,07,47,11.00
2017,09,01,07,48,11.00
2017,09,01,07,49,11.10
2017,09,01,07,50,11.10
2017,09,01,07,51,11.10
2017,09,01,07,52,11.10
2017,09,01,07,53,11.20
2017,09,01,07,54,11.20
2017,09,01,07,55,11.30
2017,09,01,07,56,11.30
2017,09,01,07,57,11.40
2017,09,01,07,58,11.40
2017,09,01,07,59,11.50
2017,09,01,08,00,11.60
2017,09,01,08,01,11.60
2017,09,01,08,02,11.70
2017,09,01,08,03,11.80
2017,09,01,08,04,11.90
2017,09,01,08,05,11.90
2017,09,01,08,06,12.00
2017,09,01,08,07,12.10
2017,09,01,08,08,12.20
2017,09,01,08,09,12.30
2017,09,01,08,10,12.30
2017,09,01,08,11,12.40
2017,09,01,08,12,12.40
2017,09,01,08,13,12.50
2017,09,01,08,14,12.60
2017,09,01,08,15,12.60
2017,09,01,08,16,12.60
2017,09,01,08,17,12.70
2017,09,01,08,18,12.70
2017,09,01,08,19,12.80
2017,09,01,08,20,12.90
2017,09,01,08,21,13.00
2017,09,01,08,22,13.00
2017,09,01,08,23,13.10
2017,09,01,08,24,13.10
2017,09,01,08,25,13.20
2017,09,01,08,26,13.20
2017,09,01,08,27,13.20
2017,09,01,08,28,13.30
2017,09,01,08,29,13.30
2017,09,01,08,30,13.30
2017,09,01,08,31,13.40
2017,09,01,08,32,13.40
2017,09,01,08,33,13.40
2017,09,01,08,34,13.40
2017,09,01,08,35,13.50
2017,09,01,08,36,13.60
2017,09,01,08,37,13.70
2017,09,01,08,38,13.70
2017,09,01,08,39,13.80
2017,09,01,08,40,13.80
2017,09,01,08,41,13.90
2017,09,01,08,42,13.90
2017,09,01,08,43,14.00
2017,09,01,08,44,14.00
2017,09,01,08,45,14.10
2017,09,01,08,46,14.10
2017,09,01,08,47,14.20
2017,09,01,08,48,14.20
2017,09,01,08,49,14.30
2017,09,01,08,50,14.40
2017,09,01,08,51,14.50
2017,09,01,08,52,14.60
2017,09,01,08,53,14.60
2017,09,01,08,54,14.70
2017,09,01,08,55,14.80
2017,09,01,08,56,14.90
2017,09,01,08,57,14.90
2017,09,01,08,58,15.00
2017,09,01,08,59,15.00
2017,09,01,09,00,15.10
2017,09,01,09,01,15.10
2017,09,01,09,02,15.20
2017,09,01,09,03,15.20
2017,09,01,09,04,15.20
2017,09,01,09,05,15.30
2017,09,01,09,06,15.30
2017,09,01,09,07,15.30
2017,09,01,09,08,15.30
2017,09,01,09,09,15.30
2017,09,01,09,10,15.30
2017,09,01,09,11,15.40
2017,09,01,09,12,15.40
2017,09,01,09,13,15.40
2017,09,01,09,14,15.40
2017,09,01,09,15,15.40
2017,09,01,09,16,15.40
2017,09,01,09,17,15.40
2017,09,01,09,18,15.40
2017,09,01,09,19,15.50
2017,09,01,09,20,15.50
2017,09,01,09,21,15.60
2017,09,01,09,22,15.60
2017,09,01,09,23,15.60
2017,09,01,09,24,15.60
2017,09,01,09,25,15.70
2017,09,01,09,26,15.70
2017,09,01,09,27,15.70
2017,09,01,09,28,15.80
2017,09,01,09,29,15.80
2017,09,01,09,30,15.80
2017,09,01,09,31,15.90
2017,09,01,09,32,15.90
2017,09,01,09,33,15.90
2017,09,01,09,34,16.00
2017,09,01,09,35,16.00
2017,09,01,09,36,16.10
2017,09,01,09,37,16.10
2017,09,01,09,38,16.10
2017,09,01,09,39,16.20
2017,09,01,09,40,16.20
2017,09,01,09,41,16.20
2017,09,01,09,42,16.30
2017,09,01,09,43,16.30
2017,09,01,09,44,16.30
2017,09,01,09,45,16.30
2017,09,01,09,46,16.40
2017,09,01,09,47,16.40
2017,09,01,09,48,16.50
2017,09,01,09,49,16.50
2017,09,01,09,50,16.60
2017,09,01,09,51,16.60
2017,09,01,09,52,16.70
2017,09,01,09,53,16.80
2017,09,01,09,54,16.80
2017,09,01,09,55,16.90
2017,09,01,09,56,17.00
2017,09,01,09,57,17.00
2017,09,01,09,58,17.00
2017,09,01,09,59,17.00
2017,09,01,10,00,17.00
2017,09,01,10,01,17.00
2017,09,01,10,02,17.00
2017,09,01,10,03,17.10
2017,09,01,10,04,17.10
2017,09,01,10,05,17.10
2017,09,01,10,06,17.20
2017,09,01,10,07,17.20
2017,09,01,10,08,17.30
2017,09,01,10,09,17.40
2017,09,01,10,10,17.50
2017,09,01,10,11,17.60
2017,09,01,10,12,17.70
2017,09,01,10,13,17.80
2017,09,01,10,14,17.90
2017,09,01,10,15,18.00
2017,09,01,10,16,18.00
2017,09,01,10,17,18.10
2017,09,01,10,18,18.20
2017,09,01,10,19,18.30
2017,09,01,10,20,18.40
2017,09,01,10,21,18.50
2017,09,01,10,22,18.70
2017,09,01,10,23,18.80
2017,09,01,10,24,18.80
2017,09,01,10,25,18.90
2017,09,01,10,26,18.80
2017,09,01,10,27,18.80
2017,09,01,10,28,18.80
2017,09,01,10,29,18.80
2017,09,01,10,30,18.80
2017,09,01,10,31,18.80
2017,09,01,10,32,18.80
2017,09,01,10,33,18.80
2017,09,01,10,34,18.80
2017,09,01,10,35,18.80
2017,09,01,10,36,18.90
2017,09,01,10,37,19.00
2017,09,01,10,38,19.10
2017,09,01,10,39,19.20
2017,09,01,10,40,19.20
2017,09,01,10,41,19.20
2017,09,01,10,42,19.30
2017,09,01,10,43,19.30
2017,09,01,10,44,19.30
2017,09,01,10,45,19.40
2017,09,01,10,46,19.40
2017,09,01,10,47,19.40
2017,09,01,10,48,19.40
2017,09,01,10,49,19.50
2017,09,01,10,50,19.60
2017,09,01,10,51,19.60
2017,09,01,10,52,19.60
2017,09,01,10,53,19.60
2017,09,01,10,54,19.70
2017,09,01,10,55,19.80
2017,09,01,10,56,19.80
2017,09,01,10,57,19.80
2017,09,01,10,58,19.80
2017,09,01,10,59,19.80
2017,09,01,11,00,19.80
2017,09,01,11,01,19.80
2017,09,01,11,02,19.80
2017,09,01,11,03,19.80
2017,09,01,11,04,19.90
2017,09,01,11,05,19.90
2017,09,01,11,06,19.90
2017,09,01,11,07,20.00
2017,09,01,11,08,20.10
2017,09,01,11,09,20.10
2017,09,01,11,10,20.20
2017,09,01,11,11,20.20
2017,09,01,11,12,20.20
2017,09,01,11,13,20.20
2017,09,01,11,14,20.20
2017,09,01,11,15,20.20
2017,09,01,11,16,20.20
2017,09,01,11,17,20.30
2017,09,01,11,18,20.20
2017,09,01,11,19,20.20
2017,09,01,11,20,20.10
2017,09,01,11,21,20.00
2017,09,01,11,22,20.00
2017,09,01,11,23,19.90
2017,09,01,11,24,19.80
2017,09,01,11,25,19.80
2017,09,01,11,26,19.80
2017,09,01,11,27,19.80
2017,09,01,11,28,19.80
2017,09,01,11,29,19.80
2017,09,01,11,30,19.80
2017,09,01,11,31,19.90
2017,09,01,11,32,19.90
2017,09,01,11,33,20.00
2017,09,01,11,34,20.10
2017,09,01,11,35,20.10
2017,09,01,11,36,20.20
2017,09,01,11,37,20.30
2017,09,01,11,38,20.40
2017,09,01,11,39,20.50
2017,09,01,11,40,20.60
2017,09,01,11,41,20.70
2017,09,01,11,42,20.80
2017,09,01,11,43,20.80
2017,09,01,11,44,20.80
2017,09,01,11,45,20.80
2017,09,01,11,46,20.90
2017,09,01,11,47,20.90
2017,09,01,11,48,20.90
2017,09,01,11,49,20.90
2017,09,01,11,50,20.90
2017,09,01,11,51,21.00
2017,09,01,11,52,21.00
2017,09,01,11,53,21.10
2017,09,01,11,54,21.10
2017,09,01,11,55,21.00
2017,09,01,11,56,21.00
2017,09,01,11,57,21.00
2017,09,01,11,58,21.00
2017,09,01,11,59,21.00
2017,09,01,12,00,21.10
2017,09,01,12,01,21.10
2017,09,01,12,02,21.20
2017,09,01,12,03,21.20
2017,09,01,12,04,21.20
2017,09,01,12,05,21.20
2017,09,01,12,06,21.10
2017,09,01,12,07,21.10
2017,09,01,12,08,21.10
2017,09,01,12,09,21.10
2017,09,01,12,10,21.10
2017,09,01,12,11,21.10
2017,09,01,12,12,21.10
2017,09,01,12,13,21.10
2017,09,01,12,14,21.00
2017,09,01,12,15,21.00
2017,09,01,12,16,20.90
2017,09,01,12,17,21.00
2017,09,01,12,18,21.00
2017,09,01,12,19,21.00
2017,09,01,12,20,21.10
2017,09,01,12,21,21.00
2017,09,01,12,22,21.00
2017,09,01,12,23,21.00
2017,09,01,12,24,21.00
2017,09,01,12,25,21.00
2017,09,01,12,26,21.10
2017,09,01,12,27,21.10
2017,09,01,12,28,21.20
2017,09,01,12,29,21.20
2017,09,01,12,30,21.30
2017,09,01,12,31,21.40
2017,09,01,12,32,21.40
2017,09,01,12,33,21.50
2017,09,01,12,34,21.50
2017,09,01,12,35,21.50
2017,09,01,12,36,21.50
2017,09,01,12,37,21.60
2017,09,01,12,38,21.50
2017,09,01,12,39,21.50
2017,09,01,12,40,21.50
2017,09,01,12,41,21.60
2017,09,01,12,42,21.60
2017,09,01,12,43,21.60
2017,09,01,12,44,21.70
2017,09,01,12,45,21.70
2017,09,01,12,46,21.70
2017,09,01,12,47,21.70
2017,09,01,12,48,21.80
2017,09,01,12,49,21.80
2017,09,01,12,50,21.80
2017,09,01,12,51,21.80
2017,09,01,12,52,21.70
2017,09,01,12,53,21.70
2017,09,01,12,54,21.60
2017,09,01,12,55,21.50
2017,09,01,12,56,21.40
2017,09,01,12,57,21.30
2017,09,01,12,58,21.30
2017,09,01,12,59,21.30
2017,09,01,13,00,21.20
2017,09,01,13,01,21.20
2017,09,01,13,02,21.10
2017,09,01,13,03,21.10
2017,09,01,13,04,21.10
2017,09,01,13,05,21.20
2017,09,01,13,06,21.20
2017,09,01,13,07,21.30
2017,09,01,13,08,21.40
2017,09,01,13,09,21.60
2017,09,01,13,10,21.70
2017,09,01,13,11,21.90
2017,09,01,13,12,22.00
2017,09,01,13,13,22.10
2017,09,01,13,14,22.20
2017,09,01,13,15,22.30
2017,09,01,13,16,22.30
2017,09,01,13,17,22.40
2017,09,01,13,18,22.50
2017,09,01,13,19,22.50
2017,09,01,13,20,22.50
2017,09,01,13,21,22.50
2017,09,01,13,22,22.50
2017,09,01,13,23,22.60
2017,09,01,13,24,22.70
2017,09,01,13,25,22.80
2017,09,01,13,26,22.90
2017,09,01,13,27,22.90
2017,09,01,13,28,23.00
2017,09,01,13,29,23.10
2017,09,01,13,30,23.10
2017,09,01,13,31,23.20
2017,09,01,13,32,23.20
2017,09,01,13,33,23.20
2017,09,01,13,34,23.20
2017,09,01,13,35,23.20
2017,09,01,13,36,23.20
2017,09,01,13,37,23.10
2017,09,01,13,38,23.00
2017,09,01,13,39,23.00
2017,09,01,13,40,23.10
2017,09,01,13,41,23.10
2017,09,01,13,42,23.30
2017,09,01,13,43,23.40
2017,09,01,13,44,23.50
2017,09,01,13,45,23.60
2017,09,01,13,46,23.80
2017,09,01,13,47,23.90
2017,09,01,13,48,23.90
2017,09,01,13,49,23.90
2017,09,01,13,50,24.00
2017,09,01,13,51,24.00
2017,09,01,13,52,23.90
2017,09,01,13,53,24.00
2017,09,01,13,54,24.00
2017,09,01,13,55,24.00
2017,09,01,13,56,24.00
2017,09,01,13,57,24.00
2017,09,01,13,58,24.10
2017,09,01,13,59,24.10
2017,09,01,14,00,24.20
2017,09,01,14,01,24.30
2017,09,01,14,02,24.30
2017,09,01,14,03,24.40
2017,09,01,14,04,24.40
2017,09,01,14,05,24.50
2017,09,01,14,06,24.60
2017,09,01,14,07,24.50
2017,09,01,14,08,24.40
2017,09,01,14,09,24.30
2017,09,01,14,10,24.20
2017,09,01,14,11,24.20
2017,09,01,14,12,24.10
2017,09,01,14,13,24.10
2017,09,01,14,14,24.10
2017,09,01,14,15,24.00
2017,09,01,14,16,24.00
2017,09,01,14,17,24.10
2017,09,01,14,18,24.20
2017,09,01,14,19,24.30
2017,09,01,14,20,24.40
2017,09,01,14,21,24.50
2017,09,01,14,22,24.50
2017,09,01,14,23,24.60
2017,09,01,14,24,24.60
2017,09,01,14,25,24.70
2017,09,01,14,26,24.80
2017,09,01,14,27,24.80
2017,09,01,14,28,24.90
2017,09,01,14,29,24.90
2017,09,01,14,30,25.00
2017,09,01,14,31,25.00
2017,09,01,14,32,25.00
2017,09,01,14,33,25.10
2017,09,01,14,34,25.10
2017,09,01,14,35,25.10
2017,09,01,14,36,25.20
2017,09,01,14,37,25.20
2017,09,01,14,38,25.20
2017,09,01,14,39,25.10
2017,09,01,14,40,25.00
2017,09,01,14,41,24.80
2017,09,01,14,42,24.70
2017,09,01,14,43,24.60
2017,09,01,14,44,24.50
2017,09,01,14,45,24.40
2017,09,01,14,46,24.30
2017,09,01,14,47,24.40
2017,09,01,14,48,24.40
2017,09,01,14,49,24.40
2017,09,01,14,50,24.30
2017,09,01,14,51,24.30
2017,09,01,14,52,24.30
2017,09,01,14,53,24.30
2017,09,01,14,54,24.20
2017,09,01,14,55,24.20
2017,09,01,14,56,24.20
2017,09,01,14,57,24.10
2017,09,01,14,58,24.00
2017,09,01,14,59,23.90
2017,09,01,15,00,23.90
2017,09,01,15,01,23.90
2017,09,01,15,02,23.90
2017,09,01,15,03,23.90
2017,09,01,15,04,23.90
2017,09,01,15,05,23.90
2017,09,01,15,06,24.00
2017,09,01,15,07,24.00
2017,09,01,15,08,24.00
2017,09,01,15,09,24.00
2017,09,01,15,10,24.10
2017,09,01,15,11,24.20
2017,09,01,15,12,24.20
2017,09,01,15,13,24.30
2017,09,01,15,14,24.30
2017,09,01,15,15,24.40
2017,09,01,15,16,24.40
2017,09,01,15,17,24.50
2017,09,01,15,18,24.70
2017,09,01,15,19,24.80
2017,09,01,15,20,24.90
2017,09,01,15,21,25.00
2017,09,01,15,22,25.10
2017,09,01,15,23,25.10
2017,09,01,15,24,25.10
2017,09,01,15,25,25.10
2017,09,01,15,26,25.10
2017,09,01,15,27,25.10
2017,09,01,15,28,25.10
2017,09,01,15,29,25.10
2017,09,01,15,30,25.10
2017,09,01,15,31,25.10
2017,09,01,15,32,25.10
2017,09,01,15,33,25.10
2017,09,01,15,34,25.10
2017,09,01,15,35,25.10
2017,09,01,15,36,25.10
2017,09,01,15,37,25.10
2017,09,01,15,38,25.10
2017,09,01,15,39,25.20
2017,09,01,15,40,25.30
2017,09,01,15,41,25.30
2017,09,01,15,42,25.30
2017,09,01,15,43,25.20
2017,09,01,15,44,25.20
2017,09,01,15,45,25.20
2017,09,01,15,46,25.20
2017,09,01,15,47,25.20
2017,09,01,15,48,25.30
2017,09,01,15,49,25.30
2017,09,01,15,50,25.40
2017,09,01,15,51,25.50
2017,09,01,15,52,25.50
2017,09,01,15,53,25.60
2017,09,01,15,54,25.60
2017,09,01,15,55,25.60
2017,09,01,15,56,25.60
2017,09,01,15,57,25.60
2017,09,01,15,58,25.60
2017,09,01,15,59,25.60
2017,09,01,16,00,25.50
2017,09,01,16,01,25.50
2017,09,01,16,02,25.50
2017,09,01,16,03,25.40
2017,09,01,16,04,25.30
2017,09,01,16,05,25.20
2017,09,01,16,06,25.10
2017,09,01,16,07,25.10
2017,09,01,16,08,25.00
2017,09,01,16,09,25.00
2017,09,01,16,10,24.90
2017,09,01,16,11,24.90
2017,09,01,16,12,24.90
2017,09,01,16,13,24.90
2017,09,01,16,14,24.90
2017,09,01,16,15,24.80
2017,09,01,16,16,24.80
2017,09,01,16,17,24.70
2017,09,01,16,18,24.70
2017,09,01,16,19,24.70
2017,09,01,16,20,24.70
2017,09,01,16,21,24.80
2017,09,01,16,22,24.80
2017,09,01,16,23,24.80
2017,09,01,16,24,24.70
2017,09,01,16,25,24.70
2017,09,01,16,26,24.60
2017,09,01,16,27,24.60
2017,09,01,16,28,24.50
2017,09,01,16,29,24.50
2017,09,01,16,30,24.50
2017,09,01,16,31,24.50
2017,09,01,16,32,24.50
2017,09,01,16,33,24.60
2017,09,01,16,34,24.60
2017,09,01,16,35,24.70
2017,09,01,16,36,24.70
2017,09,01,16,37,24.80
2017,09,01,16,38,24.80
2017,09,01,16,39,24.80
2017,09,01,16,40,24.90
2017,09,01,16,41,24.90
2017,09,01,16,42,25.00
2017,09,01,16,43,25.10
2017,09,01,16,44,25.10
2017,09,01,16,45,25.20
2017,09,01,16,46,25.10
2017,09,01,16,47,25.10
2017,09,01,16,48,25.20
2017,09,01,16,49,25.20
2017,09,01,16,50,25.20
2017,09,01,16,51,25.20
2017,09,01,16,52,25.30
2017,09,01,16,53,25.30
2017,09,01,16,54,25.30
2017,09,01,16,55,25.30
2017,09,01,16,56,25.30
2017,09,01,16,57,25.40
2017,09,01,16,58,25.40
2017,09,01,16,59,25.40
2017,09,01,17,00,25.40
2017,09,01,17,01,25.30
2017,09,01,17,02,25.30
2017,09,01,17,03,25.30
2017,09,01,17,04,25.30
2017,09,01,17,05,25.40
2017,09,01,17,06,25.40
2017,09,01,17,07,25.40
2017,09,01,17,08,25.50
2017,09,01,17,09,25.50
2017,09,01,17,10,25.50
2017,09,01,17,11,25.50
2017,09,01,17,12,25.50
2017,09,01,17,13,25.50
2017,09,01,17,14,25.50
2017,09,01,17,15,25.40
2017,09,01,17,16,25.40
2017,09,01,17,17,25.40
2017,09,01,17,18,25.40
2017,09,01,17,19,25.40